[[{"header":{"parameterUnit":"m.s-1","parameterCategory":1,"la1":30.2991,"la2":30.254,"lo1":-89.0895,"lo2":-89.0444,"dy":0.0017,"dx":0.0017,"nx":28,"ny":28,"refTime":"2023-04-26T21:00:00:Z","depth":0,"parameterNumber":2,"parameterNumberName":"U-component_of_WINDS"},"data":[0,0,0,0,0,0,0,0,0,0,0,0,0,0,0,0,0,0,0,0,0,0,0,0,0,0,0,0,0,0,0,0,0,0,0,0,0,0,0,0,0,0,0,0,0,0,0,0,0,0,0,0,0,0,0,0,0,0,1.087,1.0869,0,1.0787,1.0786,1.0785,1.0726,1.0725,1.0725,1.0725,1.064,1.0639,1.0637,0,0,0,0,0,0,0,0,0,0,0,0,0,1.0979,1.0978,1.087,1.0869,1.0868,1.0787,1.0786,1.0785,1.0726,1.0725,1.0725,1.0724,1.0641,1.0639,1.0637,0,0,0,0,0,0,0,0,0,0,0,0,0,1.0918,1.0977,1.087,1.0829,1.0824,1.0787,1.0786,1.0784,1.0726,1.0725,1.0725,1.0724,1.0642,1.0639,1.0636,1.0634,0,0,1.0628,1.0627,0,0,0,0,0,0,0,0,1.0921,1.0914,1.0836,1.0832,1.0826,1.0766,1.0793,1.0734,1.0726,1.0763,1.0725,1.0724,1.0683,1.0677,1.0663,1.063,1.0626,1.0628,1.0626,1.0625,1.0624,0,0,0,0,0,0,0,1.0925,1.0917,1.0837,1.0835,1.0829,1.0815,1.0805,1.0782,1.0728,1.076,1.0756,1.0747,1.068,1.0665,1.066,1.0625,1.0628,1.0625,1.0624,1.0623,1.0587,1.0587,0,0,0,0,0,0,1.0936,1.0921,1.084,1.0834,1.0873,1.0813,1.0803,1.0786,1.0728,1.0719,1.0747,1.0744,1.067,1.0663,1.0657,1.0651,1.0625,1.0622,1.0621,1.0586,1.0587,1.0587,0,0,0,0,0,0,1.0939,1.0929,1.0843,1.0876,1.0864,1.0812,1.0794,1.0785,1.077,1.0718,1.0709,1.0742,1.0669,1.0661,1.064,1.0647,1.0621,1.0619,1.0585,1.0586,1.0587,1.0638,0,0,0,0,0,0,1.0942,1.0931,1.0929,1.0877,1.0863,1.0827,1.0794,1.0784,1.0765,1.0761,1.0711,1.0702,1.0668,1.0644,1.0637,1.0643,1.0617,1.0584,1.0586,1.0587,1.0636,1.0641,1.0645,0,0,0,0,0,1.0946,1.0946,1.0929,1.092,1.0859,1.0828,1.082,1.0781,1.0766,1.0764,1.0731,1.0704,1.0647,1.0643,1.0634,1.0639,1.0584,1.0585,1.0587,1.0634,1.064,1.0645,0,0,0,0,0,0,1.1001,1.0939,1.0919,1.0902,1.0871,1.0818,1.0814,1.0788,1.076,1.0757,1.071,1.0699,1.0684,1.0659,1.0655,1.0634,1.0612,1.0612,1.0651,1.0656,1.0661,1.0668,1.0614,0,0,0,0,0,1.1011,1.099,1.0937,1.0928,1.0913,1.0866,1.0851,1.0824,1.0789,1.0776,1.0741,1.0709,1.0684,1.0669,1.0643,1.0632,1.062,1.0631,1.0636,1.064,1.0641,1.0634,1.0638,1.0592,1.0592,1.0592,0,0,1.1031,1.0995,1.0985,1.0938,1.091,1.089,1.0856,1.0836,1.0821,1.0773,1.0751,1.0725,1.0686,1.067,1.0662,1.0649,1.0651,1.0642,1.0645,1.0644,1.0636,1.064,1.0644,1.0593,1.0593,1.0593,0,0,1.1059,1.1029,1.1018,1.0992,1.095,1.0919,1.0917,1.0868,1.0849,1.0826,1.079,1.0772,1.0729,1.0703,1.0685,1.0703,1.0677,1.0696,1.0722,1.0716,1.0719,1.0722,1.073,1.0733,1.0697,1.0697,1.0697,0,1.109,1.1059,1.1016,1.0999,1.098,1.0935,1.0924,1.09,1.0853,1.0841,1.0828,1.0774,1.0745,1.0723,1.0728,1.0714,1.071,1.0702,1.0722,1.0725,1.0727,1.0733,1.0736,1.07,1.0699,1.0699,1.0699,0,1.1099,1.1078,1.1074,1.103,1.101,1.0996,1.0952,1.0937,1.0912,1.0883,1.0861,1.0824,1.079,1.0783,1.0758,1.0758,1.0752,1.0731,1.0708,1.0735,1.074,1.0742,1.0704,1.0703,1.0702,1.0701,0,0,1.1159,1.1092,1.1091,1.1071,1.1022,1.1005,1.0989,1.0956,1.0945,1.0914,1.09,1.0866,1.0846,1.0825,1.0797,1.0791,1.081,1.0771,1.0769,1.078,1.0808,1.0825,1.0829,1.0792,1.0792,1.0792,1.0812,0,1.118,1.115,1.1112,1.1094,1.1075,1.1032,1.1019,1.0988,1.096,1.094,1.0909,1.0886,1.0861,1.0849,1.0841,1.0809,1.0815,1.0807,1.0779,1.0779,1.0791,1.0831,1.0849,1.0869,1.0814,1.0814,1.0814,0,1.1201,1.1172,1.1153,1.1107,1.1097,1.1086,1.1053,1.1033,1.0998,1.0978,1.0955,1.0924,1.0906,1.0885,1.086,1.0856,1.0842,1.0824,1.0824,1.0821,1.0799,1.083,1.0875,1.0878,1.0817,1.0817,1.0817,0,1.1248,1.1204,1.1187,1.1171,1.1116,1.111,1.1087,1.105,1.1033,1.1004,1.0993,1.0962,1.0946,1.0923,1.0885,1.0874,1.0865,1.0841,1.0848,1.085,1.0849,1.085,1.0893,1.0839,1.0839,1.0839,1.0839,0,1.1276,1.1266,1.1208,1.1198,1.1186,1.1142,1.1131,1.1105,1.1073,1.1057,1.1018,1.1004,1.0954,1.0935,1.0905,1.0889,1.0882,1.0866,1.0858,1.087,1.0872,1.0861,1.0859,1.084,1.084,1.0839,1.0839,0,1.1327,1.1287,1.1266,1.1216,1.1204,1.1197,1.1155,1.1143,1.1113,1.1094,1.1087,1.104,1.1015,1.0975,1.0938,1.0918,1.0908,1.0894,1.092,1.0915,1.0926,1.0926,1.0964,1.0968,1.0911,1.0912,1.0912,0,1.1348,1.1339,1.1289,1.1275,1.1254,1.1233,1.1215,1.1172,1.1155,1.1114,1.1108,1.108,1.1055,1.1017,1.098,1.0952,1.0938,1.0953,1.0933,1.0946,1.0939,1.0941,1.094,1.0958,1.0959,1.096,1.096,0,1.139,1.1371,1.1347,1.1317,1.1297,1.1271,1.1243,1.1234,1.1185,1.1168,1.1142,1.1123,1.1085,1.1058,1.1024,1.1001,1.0973,1.0967,1.0967,1.098,1.0995,1.0988,1.0934,1.0966,1.0966,1.0965,1.0965,1.0965,1.1427,1.1418,1.1381,1.1356,1.1331,1.1305,1.1293,1.1261,1.1239,1.1205,1.118,1.1156,1.1121,1.1073,1.1051,1.1032,1.1019,1.102,1.102,1.1021,1.1026,1.0998,1.1025,1.1025,1.1025,1.1025,1.1025,0,1.1468,1.1442,1.142,1.1382,1.1362,1.1337,1.1305,1.1291,1.127,1.1239,1.1216,1.1186,1.116,1.1121,1.1091,1.1083,1.107,1.1077,1.1078,1.1073,1.1038,1.1041,1.1089,1.1089,1.1089,1.1089,1.1089,1.1088,1.1487,1.1471,1.1448,1.1418,1.1392,1.1368,1.1352,1.1329,1.1305,1.1273,1.1251,1.1226,1.1192,1.116,1.1135,1.1124,1.1115,1.1127,1.1112,1.1081,1.1075,1.107,1.1072,1.1125,1.1125,1.1149,1.1149,1.1149]},{"header":{"parameterUnit":"m.s-1","parameterCategory":1,"la1":30.2991,"la2":30.254,"lo1":-89.0895,"lo2":-89.0444,"dy":0.0017,"dx":0.0017,"nx":28,"ny":28,"refTime":"2023-04-26T21:00:00:Z","depth":0,"parameterNumber":3,"parameterNumberName":"V-component_of_WINDS"},"data":[0,0,0,0,0,0,0,0,0,0,0,0,0,0,0,0,0,0,0,0,0,0,0,0,0,0,0,0,0,0,0,0,0,0,0,0,0,0,0,0,0,0,0,0,0,0,0,0,0,0,0,0,0,0,0,0,0,0,5.1606,5.1607,0,5.1695,5.1696,5.1697,5.1717,5.1716,5.1716,5.1715,5.1801,5.1804,5.1806,0,0,0,0,0,0,0,0,0,0,0,0,0,5.1449,5.1451,5.1606,5.1607,5.1608,5.1695,5.1696,5.1697,5.1717,5.1716,5.1716,5.1715,5.18,5.1803,5.1807,0,0,0,0,0,0,0,0,0,0,0,0,0,5.1525,5.1452,5.1606,5.1629,5.1631,5.1695,5.1696,5.1697,5.1717,5.1716,5.1715,5.1714,5.1799,5.1803,5.1807,5.1852,0,0,5.182,5.1822,0,0,0,0,0,0,0,0,5.1521,5.1531,5.1624,5.1627,5.163,5.1694,5.1672,5.1749,5.1717,5.1684,5.1715,5.1714,5.1766,5.1773,5.1791,5.1856,5.186,5.1821,5.1823,5.1825,5.1826,0,0,0,0,0,0,0,5.1515,5.1527,5.1641,5.1625,5.1629,5.1633,5.1643,5.1687,5.1729,5.1687,5.1689,5.17,5.1767,5.1787,5.1793,5.1861,5.182,5.1824,5.1827,5.1829,5.1969,5.197,0,0,0,0,0,0,5.1507,5.1523,5.1638,5.1644,5.1572,5.1637,5.1648,5.1674,5.1729,5.1736,5.17,5.17,5.178,5.1788,5.1796,5.1854,5.1825,5.1829,5.1831,5.1968,5.1969,5.1971,0,0,0,0,0,0,5.1503,5.1517,5.1634,5.1584,5.1599,5.164,5.167,5.1677,5.1697,5.1738,5.1746,5.1713,5.178,5.179,5.1839,5.1857,5.1831,5.1835,5.1967,5.1968,5.197,5.1969,0,0,0,0,0,0,5.1499,5.1516,5.1534,5.1584,5.1602,5.1676,5.1671,5.1679,5.1705,5.1705,5.1752,5.1759,5.178,5.1832,5.1843,5.1863,5.1838,5.1965,5.1967,5.197,5.1967,5.197,5.1973,0,0,0,0,0,5.1493,5.1528,5.1535,5.1548,5.1625,5.1677,5.1687,5.1712,5.1706,5.1724,5.1751,5.1758,5.1854,5.1837,5.1849,5.187,5.1964,5.1967,5.1969,5.1966,5.1969,5.1972,0,0,0,0,0,0,5.1476,5.1535,5.1543,5.1595,5.1632,5.1681,5.1704,5.1715,5.1752,5.1751,5.1778,5.1789,5.1836,5.1858,5.1839,5.1918,5.1908,5.1914,5.1902,5.1905,5.1908,5.1902,5.1842,0,0,0,0,0,5.1479,5.1518,5.1566,5.1608,5.1626,5.1662,5.1686,5.1702,5.174,5.1755,5.1785,5.182,5.1859,5.1883,5.1921,5.1971,5.1982,5.1991,5.1994,5.1996,5.2,5.203,5.2035,5.1979,5.1979,5.1979,0,0,5.1484,5.1521,5.1543,5.1606,5.1636,5.1675,5.1675,5.1715,5.1744,5.176,5.1809,5.1833,5.1874,5.1924,5.1947,5.1944,5.2018,5.1999,5.2001,5.2004,5.2033,5.2039,5.2043,5.1981,5.1981,5.1981,0,0,5.1514,5.1546,5.1585,5.1616,5.1663,5.1687,5.1696,5.1745,5.1762,5.1812,5.1825,5.1859,5.1924,5.1954,5.1977,5.2021,5.2029,5.2033,5.2047,5.2075,5.208,5.2084,5.2101,5.2106,5.2037,5.2037,5.2037,0,5.1514,5.1575,5.1603,5.1644,5.1671,5.1691,5.173,5.1758,5.1814,5.1832,5.1827,5.1911,5.194,5.1998,5.2009,5.2027,5.2039,5.2027,5.2077,5.2082,5.2086,5.2102,5.2108,5.2037,5.2037,5.2037,5.2037,0,5.1573,5.1615,5.1641,5.1698,5.1727,5.1767,5.1801,5.1828,5.1842,5.1867,5.1918,5.1954,5.2,5.2014,5.2027,5.2075,5.2072,5.2072,5.2063,5.2091,5.2107,5.2113,5.2037,5.2037,5.2037,5.2037,0,0,5.1593,5.1667,5.1676,5.1703,5.1757,5.1789,5.183,5.1878,5.1901,5.1939,5.1974,5.203,5.2032,5.2058,5.2075,5.21,5.2135,5.2098,5.2099,5.2104,5.2191,5.2191,5.2198,5.214,5.2142,5.2143,5.2188,0,5.163,5.1707,5.1735,5.1797,5.1837,5.1856,5.1892,5.1929,5.1953,5.199,5.2016,5.2056,5.2054,5.2071,5.2097,5.2125,5.2153,5.2122,5.2173,5.2175,5.2163,5.2206,5.2206,5.2247,5.2195,5.2196,5.2196,0,5.1683,5.1726,5.1793,5.1844,5.1862,5.1894,5.1941,5.1976,5.2018,5.2034,5.2065,5.2081,5.2124,5.2113,5.2174,5.2153,5.2175,5.2192,5.2195,5.2201,5.2187,5.2214,5.2261,5.2268,5.2206,5.2205,5.2205,0,5.1693,5.1766,5.1816,5.1838,5.1899,5.1922,5.1948,5.1989,5.2017,5.2057,5.2076,5.2119,5.2144,5.2177,5.2204,5.2194,5.2263,5.2254,5.2278,5.2277,5.2291,5.229,5.2343,5.2305,5.2305,5.2304,5.2304,0,5.1732,5.1772,5.1822,5.1853,5.1899,5.193,5.1975,5.2002,5.2039,5.2075,5.2094,5.2127,5.2161,5.2198,5.222,5.2267,5.2278,5.2292,5.2297,5.2291,5.2289,5.2306,5.2304,5.2306,5.2306,5.2305,5.2305,0,5.175,5.1785,5.1841,5.1896,5.191,5.1942,5.1988,5.2018,5.2045,5.209,5.2103,5.2143,5.2189,5.222,5.2276,5.2291,5.2344,5.2348,5.233,5.2333,5.2355,5.2353,5.2422,5.2433,5.2386,5.2386,5.2387,0,5.1773,5.1805,5.1864,5.1891,5.1918,5.196,5.199,5.2022,5.2051,5.2103,5.2127,5.2175,5.2214,5.2286,5.232,5.2364,5.237,5.2391,5.2377,5.237,5.2372,5.237,5.2374,5.2393,5.2394,5.2394,5.2394,0,5.181,5.1827,5.1869,5.1919,5.1954,5.1993,5.2033,5.2053,5.2092,5.2124,5.2172,5.2203,5.2264,5.231,5.2359,5.2384,5.2396,5.2399,5.2407,5.2401,5.239,5.2398,5.2337,5.2397,5.2397,5.2396,5.2396,5.2396,5.1833,5.1863,5.191,5.1957,5.1991,5.2029,5.2061,5.2093,5.2134,5.2187,5.2203,5.2253,5.2296,5.2363,5.239,5.2429,5.2427,5.2438,5.2441,5.2444,5.2445,5.2384,5.2438,5.2437,5.2437,5.2437,5.2437,0,5.1872,5.1904,5.1948,5.2004,5.2041,5.2051,5.2096,5.2126,5.2171,5.2211,5.2251,5.2307,5.2353,5.2392,5.244,5.2464,5.247,5.2475,5.2474,5.248,5.2443,5.2432,5.2469,5.2469,5.2469,5.2469,5.2469,5.2469,5.1897,5.195,5.1972,5.2043,5.2074,5.2125,5.215,5.2185,5.2217,5.228,5.2319,5.2345,5.2385,5.2436,5.2479,5.2489,5.2506,5.251,5.2522,5.2486,5.2482,5.2479,5.2469,5.2513,5.2513,5.2556,5.2556,5.2556]}]]